GW0157 Weather Reports


time (UTC)temp
C
wind
direction
speed
KPH
gust
KPH
rain 1hr
cm
rain 24hr
cm
rain mn
cm
humidity
%
barometer
mb
20260504000410 20 6 0.0 3.2 0.00 0.03 0.03 45 1033.9
20260503235907 20 6 0.0 1.6 0.00 0.03 0.03 46 1033.7
20260503235405 20 16 0.0 3.2 0.00 0.03 0.03 47 1033.5
20260503234902 20 204 4.8 9.7 0.00 0.03 0.03 44 1033.6
20260503234359 20 175 6.4 9.7 0.00 0.03 0.03 47 1033.7
20260503233857 20 179 4.8 8.0 0.00 0.03 0.03 44 1033.6
20260503233353 20 20 1.6 11.3 0.00 0.03 0.03 44 1033.7
20260503232849 20 190 8.0 14.5 0.00 0.03 0.03 44 1033.8
20260503232347 20 325 3.2 11.3 0.00 0.03 0.03 43 1033.9
20260503231845 20 321 3.2 11.3 0.00 0.03 0.03 44 1033.7
20260503231342 21 291 4.8 9.7 0.00 0.03 0.03 41 1033.9
20260503230838 21 50 1.6 4.8 0.00 0.03 0.03 41 1033.9
20260503230335 21 301 3.2 8.0 0.00 0.03 0.03 42 1033.9
20260503225833 21 306 4.8 8.0 0.00 0.03 0.03 41 1033.8
20260503225328 21 331 3.2 4.8 0.00 0.03 0.03 43 1034.1
20260503224825 20 201 4.8 11.3 0.00 0.03 0.03 48 1034.0
20260503224322 20 192 9.7 12.9 0.00 0.03 0.03 47 1034.0
20260503223820 20 183 14.5 20.9 0.00 0.03 0.03 46 1034.1
20260503223317 20 340 1.6 12.9 0.00 0.03 0.03 46 1033.7
20260503222812 20 173 11.3 12.9 0.00 0.03 0.03 46 1034.2
20260503222311 20 1 3.2 8.0 0.00 0.03 0.03 45 1034.2
20260503221809 20 166 9.7 16.1 0.00 0.03 0.03 50 1034.0
20260503221307 20 348 3.2 8.0 0.00 0.03 0.03 46 1034.2
20260503220803 20 202 6.4 16.1 0.00 0.03 0.03 48 1034.0
20260503220300 20 172 12.9 22.5 0.00 0.03 0.03 48 1034.1
20260503215757 20 173 9.7 16.1 0.00 0.03 0.03 48 1034.1
20260503215254 20 186 11.3 17.7 0.00 0.03 0.03 50 1034.4
20260503214752 20 202 6.4 9.7 0.00 0.03 0.03 48 1034.2
20260503214248 20 197 11.3 20.9 0.00 0.03 0.03 49 1034.5
20260503213746 20 203 12.9 17.7 0.00 0.03 0.03 48 1034.3
20260503213244 20 324 4.8 12.9 0.00 0.03 0.03 50 1034.3
20260503212740 20 186 4.8 22.5 0.00 0.03 0.03 49 1034.4
20260503212238 20 170 12.9 17.7 0.00 0.03 0.03 51 1034.3
20260503211735 20 293 4.8 9.7 0.00 0.03 0.03 47 1034.4
20260503211231 20 170 11.3 14.5 0.00 0.03 0.03 51 1034.5
20260503210727 20 183 12.9 14.5 0.00 0.03 0.03 49 1034.7
20260503210225 20 218 4.8 20.9 0.00 0.03 0.03 48 1034.7
20260503205720 19 198 16.1 20.9 0.00 0.03 0.03 48 1034.7
20260503205216 20 190 17.7 22.5 0.00 0.03 0.03 50 1034.7
20260503204713 20 187 11.3 14.5 0.00 0.03 0.03 50 1034.8
20260503204211 19 173 12.9 20.9 0.00 0.03 0.03 52 1034.8
20260503203708 19 156 14.5 17.7 0.00 0.03 0.03 51 1035.0
20260503203205 19 175 14.5 16.1 0.00 0.03 0.03 50 1035.2
20260503202702 19 193 14.5 24.1 0.00 0.03 0.03 52 1035.1
20260503202200 19 199 14.5 24.1 0.00 0.03 0.03 51 1035.0
20260503201658 19 200 11.3 16.1 0.00 0.03 0.03 51 1035.5
20260503201155 20 213 6.4 20.9 0.00 0.03 0.03 52 1035.4
20260503200651 19 161 16.1 24.1 0.00 0.03 0.03 50 1035.3
20260503200148 19 253 9.7 16.1 0.00 0.03 0.03 51 1035.6
20260503195644 18 177 17.7 22.5 0.00 0.03 0.03 50 1035.2
20260503195142 18 172 19.3 27.4 0.00 0.03 0.03 49 1035.5
20260503194638 18 178 12.9 24.1 0.00 0.03 0.03 51 1035.4
20260503194134 19 171 17.7 20.9 0.00 0.03 0.03 51 1035.8
20260503193631 18 157 11.3 24.1 0.00 0.03 0.03 54 1035.7
20260503193126 19 190 14.5 20.9 0.00 0.03 0.03 52 1035.9
20260503192622 18 233 4.8 17.7 0.00 0.03 0.03 51 1036.1
20260503192118 19 200 19.3 25.7 0.00 0.03 0.03 49 1036.0
20260503191615 18 200 11.3 17.7 0.00 0.03 0.03 50 1036.1
20260503191112 18 192 16.1 20.9 0.00 0.03 0.03 51 1036.1
20260503190609 18 170 17.7 22.5 0.00 0.03 0.03 50 1036.2
20260503190106 18 199 17.7 29.0 0.00 0.03 0.03 50 1036.0
20260503185603 18 173 17.7 22.5 0.00 0.03 0.03 49 1036.1
20260503185102 18 182 19.3 22.5 0.00 0.03 0.03 51 1036.5
20260503184558 18 183 16.1 27.4 0.00 0.03 0.03 50 1036.4
20260503184055 18 183 16.1 22.5 0.00 0.03 0.03 53 1036.4
20260503183551 18 169 11.3 20.9 0.00 0.03 0.03 53 1036.4
20260503183049 18 152 17.7 27.4 0.00 0.03 0.03 50 1036.6
20260503182547 17 119 16.1 25.7 0.00 0.03 0.03 53 1036.2
20260503182045 17 186 17.7 25.7 0.00 0.03 0.03 53 1036.4
20260503181541 17 183 17.7 32.2 0.00 0.03 0.03 52 1036.8
20260503181038 17 147 9.7 22.5 0.00 0.03 0.03 59 1036.9
20260503180535 17 171 17.7 29.0 0.00 0.03 0.03 52 1036.7
20260503180032 17 174 20.9 25.7 0.00 0.03 0.03 53 1037.1
20260503175530 17 157 19.3 25.7 0.00 0.03 0.03 54 1036.9
20260503175027 17 148 14.5 25.7 0.00 0.03 0.03 57 1036.9
20260503174524 17 174 17.7 22.5 0.00 0.03 0.03 57 1037.0
20260503174020 16 121 14.5 27.4 0.00 0.03 0.03 59 1037.0
20260503173515 16 194 25.7 32.2 0.00 0.03 0.03 57 1037.4
20260503173012 16 193 14.5 24.1 0.00 0.03 0.03 60 1037.4
20260503172510 16 185 17.7 24.1 0.00 0.03 0.03 60 1037.2
20260503172006 16 182 14.5 32.2 0.00 0.03 0.03 62 1037.1
20260503171503 16 152 16.1 24.1 0.00 0.03 0.03 58 1037.4
20260503171000 16 192 12.9 24.1 0.00 0.03 0.03 61 1037.7
20260503170456 16 168 17.7 22.5 0.00 0.03 0.03 59 1037.8
20260503150849 -17 175 11.3 17.7 0.00 0.03 0.03 1039.1
20260503150345 -17 145 8.0 14.5 0.00 0.03 0.03 1039.0
20260503140309 -17 142 11.3 17.7 0.00 0.03 0.03 1040.1
20260503131239 -17 184 12.9 20.9 0.00 0.00 0.00 1041.0
20260503130736 -17 169 17.7 20.9 0.00 0.00 0.00 1041.0
20260503130233 -17 193 12.9 22.5 0.00 0.00 0.00 1041.2
20260503120200 -17 173 9.7 16.1 0.00 0.00 0.00 1041.3
20260503110627 -17 177 11.3 12.9 0.00 0.00 0.00 1041.1
20260503110124 -17 192 9.7 11.3 0.00 0.00 0.00 1041.0
20260503081434 -17 122 4.8 9.7 0.00 0.00 0.00 1042.2
20260503080932 -17 156 4.8 8.0 0.00 0.00 0.00 1042.2
20260503080428 -17 152 4.8 8.0 0.00 0.00 0.00 1042.2
20260503072904 -17 99 3.2 4.8 0.00 0.00 0.00 1042.5
20260503072401 -17 77 3.2 3.2 0.00 0.00 0.00 1042.4
20260503071858 -17 85 3.2 4.8 0.00 0.00 0.00 1042.3
20260503071355 -17 163 4.8 4.8 0.00 0.00 0.00 1042.5
20260503070851 -17 112 4.8 4.8 0.00 0.00 0.00 1042.5
20260503070349 -17 71 3.2 4.8 0.00 0.00 0.00 1042.5
20260503060314 -17 138 3.2 4.8 0.00 0.00 0.00 1042.8
20260503054801 -17 137 3.2 4.8 0.00 0.00 0.00 1043.1
20260503054258 -17 152 4.8 4.8 0.00 0.00 0.00 1043.1
20260503053756 -17 122 3.2 3.2 0.00 0.00 0.00 1043.0
20260503053254 -17 142 3.2 4.8 0.00 0.00 0.00 1043.4
20260503052750 -17 143 3.2 4.8 0.00 0.00 0.00 1043.2
20260503052247 -17 147 4.8 4.8 0.00 0.00 0.00 1043.3
20260503051742 -17 126 3.2 4.8 0.00 0.00 0.00 1043.3
20260503051240 -17 135 4.8 4.8 0.00 0.00 0.00 1043.0
20260503050737 -17 135 4.8 4.8 0.00 0.00 0.00 1043.4
20260503050233 -17 125 3.2 4.8 0.00 0.00 0.00 1043.3
20260503045730 -17 131 4.8 4.8 0.00 0.00 0.00 1043.5
20260503045228 -17 147 3.2 4.8 0.00 0.00 0.00 1043.5
20260503044724 -17 70 3.2 3.2 0.00 0.00 0.00 1043.4
20260503044222 -17 56 3.2 3.2 0.00 0.00 0.00 1043.5
20260503043718 -17 78 3.2 3.2 0.00 0.00 0.00 1043.7
20260503043216 -17 41 1.6 3.2 0.00 0.00 0.00 1043.5
20260503042712 -17 53 1.6 3.2 0.00 0.00 0.00 1043.8
20260503042208 -17 21 1.6 1.6 0.00 0.00 0.00 1043.8
20260503041704 -17 10 0.0 1.6 0.00 0.00 0.00 1043.8
20260503041202 -17 10 0.0 0.0 0.00 0.00 0.00 1043.9
20260503040659 -17 10 0.0 0.0 0.00 0.00 0.00 1043.8
20260503040157 -17 10 0.0 1.6 0.00 0.00 0.00 1043.8
20260503035653 -17 10 0.0 0.0 0.00 0.00 0.00 1044.1
20260503035151 -17 10 0.0 0.0 0.00 0.00 0.00 1044.0
20260503034648 -17 10 0.0 0.0 0.00 0.00 0.00 1044.0
20260503034145 -17 10 0.0 0.0 0.00 0.00 0.00 1044.2
20260503033642 -17 10 0.0 0.0 0.00 0.00 0.00 1044.2
20260503033140 -17 10 0.0 0.0 0.00 0.00 0.00 1044.0
20260503032638 -17 11 0.0 1.6 0.00 0.00 0.00 1044.0
20260503032137 -17 9 0.0 0.0 0.00 0.00 0.00 1044.1
20260503031634 -17 10 0.0 0.0 0.00 0.00 0.00 1044.3
20260503031131 -17 10 0.0 0.0 0.00 0.00 0.00 1044.3
20260503030627 -17 10 0.0 0.0 0.00 0.00 0.00 1044.2
20260503030124 -17 14 0.0 3.2 0.00 0.00 0.00 1044.4
20260503025621 -17 13 0.0 0.0 0.00 0.00 0.00 1044.1
20260503025119 -17 14 0.0 1.6 0.00 0.00 0.00 1044.4
20260503024615 -17 8 0.0 0.0 0.00 0.00 0.00 1044.4
20260503024112 -17 8 0.0 0.0 0.00 0.00 0.00 1044.4
20260503023609 -17 32 1.6 1.6 0.00 0.00 0.00 1044.3
20260503023106 -17 28 1.6 1.6 0.00 0.00 0.00 1044.3
20260503022602 -17 27 1.6 1.6 0.00 0.00 0.00 1044.3
20260503022056 -17 26 1.6 1.6 0.00 0.00 0.00 1044.3
20260503021554 -17 43 1.6 3.2 0.00 0.00 0.00 1044.3
20260503021051 -17 40 1.6 3.2 0.00 0.00 0.00 1044.1
20260503020548 -17 50 1.6 3.2 0.00 0.00 0.00 1044.4
20260503020044 -17 57 3.2 3.2 0.00 0.00 0.00 1044.1
20260503015541 -17 8 0.0 0.0 0.00 0.00 0.00 1044.1
20260503015039 -17 12 0.0 1.6 0.00 0.00 0.00 1044.3
20260503014534 -17 39 1.6 1.6 0.00 0.00 0.00 1044.0
20260503014033 -17 39 1.6 3.2 0.00 0.00 0.00 1044.3
20260503013529 -17 39 1.6 3.2 0.00 0.00 0.00 1044.1
20260503013027 -17 37 1.6 3.2 0.00 0.00 0.00 1043.9
20260503012525 -17 51 1.6 3.2 0.00 0.00 0.00 1044.0
20260503012021 -17 39 1.6 3.2 0.00 0.00 0.00 1044.0
20260503011517 -17 56 3.2 4.8 0.00 0.00 0.00 1043.9
20260503011015 -17 55 1.6 3.2 0.00 0.00 0.00 1043.9
20260503010511 -17 92 3.2 3.2 0.00 0.00 0.00 1043.8
20260503010009 -17 33 1.6 3.2 0.00 0.00 0.00 1044.0
20260503005505 -17 183 4.8 4.8 0.00 0.00 0.00 1043.8
20260503005002 -17 191 3.2 4.8 0.00 0.00 0.00 1043.8
20260503004459 -17 179 4.8 8.0 0.00 0.00 0.00 1044.0
20260503003957 -17 280 1.6 4.8 0.00 0.00 0.00 1043.8
20260503003453 -17 182 4.8 4.8 0.00 0.00 0.00 1044.2
20260503002950 -17 322 1.6 4.8 0.00 0.00 0.00 1044.2
20260503002447 -17 204 4.8 4.8 0.00 0.00 0.00 1044.1
20260503001943 -17 195 6.4 11.3 0.00 0.00 0.00 1044.3
20260503001440 -17 201 4.8 4.8 0.00 0.00 0.00 1044.2
20260503000938 -17 285 3.2 4.8 0.00 0.00 0.00 1044.0